This demonstration page uses our WeatherBlox Daily Observations layout. Learn more.

Left ArrowRight Arrow

36.17497, -115.13722

Hourly Observations for March 12, 2016

Temp ( °F °C ) Dew Point ( °F °C ) Humidity (%) Winds ( mph kmh ) Pressure ( in mb ) Visibility ( mi km ) Precip ( " mm )
12:44 am 00:44 Partly Cloudy 52 11 34 1 50 50 NNW 17 28 29.77 1008 10 16.0934 0 0
12:53 am 00:53 Mostly Cloudy 51 10.6 33 0.6 50 50 NW 22 35 29.78 1009 10 16.0934 0 0
1:53 am 01:53 Cloudy 50 10 40 4.4 68 68 W 7 11 29.81 1009 10 16.0934 0 0
2:53 am 02:53 Mostly Cloudy 48 8.9 39 3.9 71 71 NNW 10 17 29.83 1010 10 16.0934 0 0.0254
3:53 am 03:53 Cloudy 49 9.4 37 2.8 64 64 WNW 12 19 29.86 1011 10 16.0934 0 0
4:53 am 04:53 Mostly Cloudy 49 9.4 36 2.2 61 61 WNW 16 26 29.9 1012 10 16.0934 0 0
5:53 am 05:53 Clear 47 8.3 36 2.2 66 66 Calm 29.95 1014 10 16.0934 0 0
6:53 am 06:53 Sunny 50 10 33 0.6 52 52 WNW 9 15 29.98 1015 10 16.0934 0 0
7:53 am 07:53 Sunny 53 11.7 32 0 45 45 NW 12 19 30.02 1017 10 16.0934 0 0
8:53 am 08:53 Sunny 54 12.2 33 0.6 45 45 E 7 11 30.05 1018 10 16.0934 0 0
9:53 am 09:53 Sunny 57 13.9 33 0.6 41 41 VRB 5 7 30.07 1018 10 16.0934 0 0
10:53 am 10:53 Sunny 58 14.4 32 0 38 38 undefined N/A 30.07 1018 10 16.0934 0 0
11:53 am 11:53 Sunny 61 16.1 30 -1.1 31 31 SE 5 7 30.06 1018 10 16.0934 0 0
12:53 pm 12:53 Sunny 63 17.2 30 -1.1 29 29 SSW 10 17 30.05 1018 10 16.0934 0 0
1:53 pm 13:53 Sunny 64 17.8 29 -1.7 27 27 W 6 9 30.02 1017 10 16.0934 0 0
2:53 pm 14:53 Sunny 65 18.3 28 -2.2 25 25 S 3 6 30.01 1016 10 16.0934 0 0
3:53 pm 15:53 Sunny 67 19.4 27 -2.8 22 22 ESE 10 17 29.99 1016 10 16.0934 0 0
4:53 pm 16:53 Sunny 66 18.9 27 -2.8 23 23 SE 8 13 29.99 1016 10 16.0934 0 0
5:53 pm 17:53 Clear 63 17.2 28 -2.2 27 27 ESE 12 19 30.01 1016 10 16.0934 0 0
6:53 pm 18:53 Clear 61 16.1 29 -1.7 30 30 E 7 11 30.03 1017 10 16.0934 0 0
7:53 pm 19:53 Clear 60 15.6 29 -1.7 31 31 ENE 7 11 30.04 1017 10 16.0934 0 0
8:53 pm 20:53 Clear 58 14.4 31 -0.6 36 36 E 9 15 30.05 1018 10 16.0934 0 0
9:53 pm 21:53 Clear 56 13.3 31 -0.6 39 39 E 8 13 30.06 1018 10 16.0934 0 0
10:53 pm 22:53 Clear 55 12.8 31 -0.6 40 40 E 7 11 30.05 1018 10 16.0934 0 0
11:53 pm 23:53 Clear 55 12.8 31 -0.6 40 40 E 5 7 30.04 1017 10 16.0934 0 0

Powered by AerisWeather